User: anonymous
Location: Oshawa
(43.9000°N, 78.8670°W)
Time: 09:30:49
(UTC-04:00)
Language:

Thor Agena Rocket - Orbit

View from above orbital plane
View from above orbital plane
View from above satellite
View from above satellite

Ground track
Ground track

The orbit data is extracted from the following two-line orbital elements,

1 00733U 64002A   14212.02279584  .00000078  00000-0  46836-4 0  2890
2 00733 099.0099 333.1627 0033692 358.8075 129.8675 14.31875300631713
Epoch (UTC): 31 July 2014 00:32:49
Eccentricity: 0.0033692
inclination: 99.0099°
perigee height: 761 km
apogee height: 809 km
right ascension of ascending node: 333.1627°
argument of perigee: 358.8075°
revolutions per day: 14.31875300
mean anomaly at epoch: 129.8675°
orbit number at epoch: 63171

The dashed part of the orbit path shows where the satellite is in the earth's shadow,  

DLR